| time (UTC) | temp F | wind direction | speed MPH | gust MPH | rain 1hr in | rain 24hr in | rain mn in | humidity % | barometer mb |
| 20260504081545 | 37 | 284 | 9.0 | 11.0 | 0.00 | 0.00 | 0.00 | 45 | 998.1 |
| 20260504050116 | 41 | 298 | 9.0 | 13.0 | 0.00 | 0.00 | 0.00 | 41 | 999.6 |
| 20260504044515 | 42 | 275 | 11.0 | 14.0 | 0.00 | 0.00 | 0.00 | 40 | 999.9 |
| 20260504043016 | 42 | 292 | 11.0 | 15.0 | 0.00 | 0.00 | 0.00 | 39 | 999.9 |
| 20260504041514 | 42 | 299 | 9.0 | 13.0 | 0.00 | 0.00 | 0.00 | 39 | 1000.1 |
| 20260504040033 | 43 | 287 | 9.0 | 13.0 | 0.00 | 0.00 | 0.00 | 39 | 1000.1 |
| 20260504034512 | 43 | 305 | 9.0 | 13.0 | 0.00 | 0.00 | 0.00 | 39 | 1000.1 |
| 20260504033012 | 44 | 295 | 10.0 | 14.0 | 0.00 | 0.00 | 0.00 | 37 | 1000.2 |
| 20260504031513 | 44 | 299 | 10.0 | 14.0 | 0.00 | 0.00 | 0.00 | 38 | 1000.0 |
| 20260504030010 | 44 | 296 | 11.0 | 16.0 | 0.00 | 0.00 | 0.00 | 38 | 999.9 |
| 20260504024509 | 44 | 297 | 9.0 | 12.0 | 0.00 | 0.00 | 0.00 | 39 | 999.9 |
| 20260504023010 | 44 | 304 | 10.0 | 12.0 | 0.00 | 0.00 | 0.00 | 39 | 999.7 |
| 20260504021509 | 46 | 284 | 7.0 | 9.0 | 0.00 | 0.00 | 0.00 | 37 | 999.7 |
| 20260504020008 | 49 | 276 | 4.0 | 8.0 | 0.00 | 0.00 | 0.00 | 32 | 999.7 |
| 20260504014520 | 51 | 271 | 5.0 | 8.0 | 0.00 | 0.00 | 0.00 | 30 | 999.7 |
| 20260504013006 | 52 | 276 | 2.0 | 7.0 | 0.00 | 0.00 | 0.00 | 30 | 999.8 |
| 20260504011506 | 53 | 300 | 7.0 | 10.0 | 0.00 | 0.00 | 0.00 | 29 | 999.8 |
| 20260504010004 | 53 | 349 | 6.0 | 12.0 | 0.00 | 0.00 | 0.00 | 28 | 999.9 |
| 20260504004504 | 53 | 321 | 12.0 | 19.0 | 0.00 | 0.00 | 0.00 | 27 | 1000.1 |
| 20260504003008 | 54 | 325 | 8.0 | 22.0 | 0.00 | 0.00 | 0.00 | 27 | 1000.1 |
| 20260504001502 | 54 | 286 | 15.0 | 25.0 | 0.00 | 0.00 | 0.00 | 26 | 1000.2 |
| 20260504000001 | 55 | 300 | 13.0 | 19.0 | 0.00 | 0.00 | 0.00 | 25 | 1000.3 |
| 20260503234700 | 55 | 290 | 15.0 | 27.0 | 0.00 | 0.00 | 0.00 | 25 | 1000.1 |
| 20260503233059 | 56 | 331 | 12.0 | 20.0 | 0.00 | 0.00 | 0.00 | 24 | 1000.1 |
| 20260503231558 | 55 | 273 | 11.0 | 21.0 | 0.00 | 0.00 | 0.00 | 22 | 1000.3 |
| 20260503230104 | 55 | 330 | 14.0 | 25.0 | 0.00 | 0.00 | 0.00 | 23 | 1000.4 |
| 20260503224558 | 56 | 255 | 14.0 | 19.0 | 0.00 | 0.00 | 0.00 | 20 | 1000.5 |
| 20260503223057 | 57 | 304 | 8.0 | 31.0 | 0.00 | 0.00 | 0.00 | 24 | 1000.5 |
| 20260503221558 | 55 | 307 | 14.0 | 21.0 | 0.00 | 0.00 | 0.00 | 23 | 1000.7 |
| 20260503220054 | 56 | 306 | 13.0 | 23.0 | 0.00 | 0.00 | 0.00 | 22 | 1000.8 |
| 20260503214552 | 56 | 272 | 16.0 | 28.0 | 0.00 | 0.00 | 0.00 | 22 | 1001.3 |
| 20260503213051 | 55 | 249 | 15.0 | 30.0 | 0.00 | 0.00 | 0.00 | 19 | 1001.4 |
| 20260503211550 | 56 | 257 | 12.0 | 21.0 | 0.00 | 0.00 | 0.00 | 21 | 1001.6 |
| 20260503210047 | 55 | 254 | 19.0 | 30.0 | 0.00 | 0.00 | 0.00 | 18 | 1001.9 |
| 20260503204546 | 55 | 286 | 13.0 | 27.0 | 0.00 | 0.00 | 0.00 | 21 | 1002.1 |
| 20260503203047 | 54 | 294 | 16.0 | 29.0 | 0.00 | 0.00 | 0.00 | 18 | 1002.3 |
| 20260503201544 | 54 | 310 | 16.0 | 29.0 | 0.00 | 0.00 | 0.00 | 25 | 1002.4 |
| 20260503200045 | 54 | 296 | 18.0 | 23.0 | 0.00 | 0.00 | 0.00 | 24 | 1002.4 |
| 20260503194543 | 55 | 302 | 14.0 | 25.0 | 0.00 | 0.00 | 0.00 | 24 | 1002.5 |
| 20260503193047 | 53 | 259 | 16.0 | 40.0 | 0.00 | 0.00 | 0.00 | 23 | 1002.1 |
| 20260503191542 | 54 | 318 | 18.0 | 29.0 | 0.00 | 0.00 | 0.00 | 24 | 1002.4 |
| 20260503190042 | 55 | 272 | 18.0 | 28.0 | 0.00 | 0.00 | 0.00 | 20 | 1002.4 |
| 20260503184538 | 54 | 284 | 13.0 | 27.0 | 0.00 | 0.00 | 0.00 | 23 | 1002.7 |
| 20260503183052 | 54 | 317 | 16.0 | 25.0 | 0.00 | 0.00 | 0.00 | 27 | 1002.9 |
| 20260503181538 | 54 | 280 | 13.0 | 32.0 | 0.00 | 0.00 | 0.00 | 28 | 1003.1 |
| 20260503180035 | 54 | 244 | 17.0 | 25.0 | 0.00 | 0.00 | 0.00 | 26 | 1003.1 |
| 20260503174533 | 54 | 327 | 14.0 | 29.0 | 0.00 | 0.00 | 0.00 | 27 | 1003.2 |
| 20260503173031 | 54 | 280 | 11.0 | 21.0 | 0.00 | 0.00 | 0.00 | 29 | 1003.6 |
| 20260503171528 | 53 | 302 | 15.0 | 23.0 | 0.00 | 0.00 | 0.00 | 29 | 1003.6 |